Yellowknife, Northwest Territories

10:56 AM MST on February 21, 2017 (GMT -0700)
Yellowknife

Weather History for CYZF - February, 2013

Change the Weather History Date:

Sunday, February 3, 2013

  Actual Average Record
Temperature  
Mean Temperature -31 °F -  
Max Temperature -21 °F -2 °F 37 °F (2012)
Min Temperature -41 °F -20 °F -43 °F (2008)
Degree Days  
Heating Degree Days 96    
Moisture  
Dew Point -38 °F    
Average Humidity 68    
Maximum Humidity 76    
Minimum Humidity 51    
Precipitation  
Precipitation 0.00 in 0.02 in - ()
Sea Level Pressure  
Sea Level Pressure 30.17 in    
Wind  
Wind Speed 4 mph ()    
Max Wind Speed 10 mph    
Max Gust Speed -    
Visibility 15.0 miles    
Events Fog , Snow    
Averages and records for this station are not official NWS values.
T = Trace of Precipitation, MM = Missing Value Source: Averaged Metar Reports

Daily Weather History Graph

Daily Weather History Graph

Search for Another Location

Airport or City:

Trip Planner

Search our weather history database for the weather conditions in past years. The results will help you decide how hot, cold, wet, or windy it might be!

Date:

Astronomy

Feb. 03, 2013 Rise Set
Actual Time 8:59 AM MST 4:44 PM MST
Civil Twilight 8:08 AM MST 5:36 PM MST
Nautical Twilight 7:13 AM MST 6:31 PM MST
Astronomical Twilight 6:21 AM MST 7:23 PM MST
Moon 2:41 AM MST (2/3) 10:10 AM MST (2/3)
Length of Visible Light 9h 28m
Length of Day
7h 45m
Waning Gibbous, 48% of the Moon is Illuminated
Feb 3
Waning Gibbous
Feb 10
New
Feb 17
First Quarter
Feb 25
Full
Mar 4
Last Quarter

Hourly Weather History & Observations

Time (MST) Temp. Windchill Dew Point Humidity Pressure Visibility Wind Dir Wind Speed Gust Speed Precip Events Conditions
12:00 AM -31.0 °F -46.1 °F -38.2 °F 68% 30.33 in 15.0 mi NNW 4.6 mph - N/A   Clear
1:00 AM -31.0 °F -46.1 °F -38.2 °F 68% 30.32 in 15.0 mi NNW 4.6 mph - N/A   Clear
2:00 AM -34.6 °F -47.4 °F -40.0 °F 75% 30.31 in 15.0 mi North 3.5 mph - N/A   Clear
3:00 AM -32.8 °F - -40.0 °F 68% 30.30 in 15.0 mi East 2.3 mph - N/A   Clear
4:00 AM -36.4 °F - -43.6 °F 67% 30.29 in 15.0 mi NNW 2.3 mph - N/A   Clear
5:00 AM -39 °F - -46 °F 51% 30.27 in 15 mi NNW 4.6 mph - - Snow Snow
5:00 AM -38.2 °F -54.5 °F -45.4 °F 67% 30.27 in 15.0 mi NNW 4.6 mph - N/A   Ice Crystals
5:42 AM -38.2 °F -56.9 °F -45.4 °F 67% 30.26 in 15.0 mi NNE 5.8 mph - N/A   Clear
6:00 AM -38.2 °F -51.5 °F -45.4 °F 67% 30.26 in 15.0 mi NE 3.5 mph - N/A   Clear
7:00 AM -38.2 °F - -45.4 °F 67% 30.25 in 15.0 mi Calm Calm - N/A   Clear
8:00 AM -40.0 °F - -47.2 °F 67% 30.24 in 15.0 mi NNW 2.3 mph - N/A   Clear
9:00 AM -38.2 °F - -45.4 °F 67% 30.22 in 15.0 mi Calm Calm - N/A   Partly Cloudy
10:00 AM -38.2 °F -51.5 °F -45.4 °F 67% 30.22 in 15.0 mi ENE 3.5 mph - N/A   Clear
11:00 AM -34 °F - -41 °F 51% 30.20 in 15 mi East 3.5 mph - - Fog Light Fog
11:00 AM -34.6 °F -50.3 °F -41.8 °F 68% 30.20 in 15.0 mi ENE 4.6 mph - N/A   Partly Cloudy
11:49 AM -31.0 °F -43.3 °F -38.2 °F 68% 30.18 in 15.0 mi ENE 3.5 mph - N/A   Ice Crystals
12:00 PM -29.2 °F -41.2 °F -36.4 °F 68% 30.17 in 15.0 mi NE 3.5 mph - N/A   Ice Crystals
1:00 PM -27.4 °F - -32.8 °F 75% 30.16 in 15.0 mi Calm Calm - N/A   Ice Crystals
2:00 PM -23.8 °F -37.7 °F -29.2 °F 76% 30.15 in 15.0 mi East 4.6 mph - N/A   Ice Crystals
3:00 PM -22.0 °F -33.0 °F -29.2 °F 69% 30.13 in 15.0 mi East 3.5 mph - N/A   Ice Crystals
4:00 PM -22.0 °F -35.6 °F -29.2 °F 69% 30.12 in 15.0 mi East 4.6 mph - N/A   Ice Crystals
5:00 PM -24 °F - -30 °F 58% 30.09 in 15 mi East 4.6 mph - - Snow Snow
5:00 PM -23.8 °F -37.7 °F -31.0 °F 69% 30.09 in 15.0 mi East 4.6 mph - N/A   Ice Crystals
6:00 PM -25.6 °F -46.8 °F -31.0 °F 76% 30.07 in 15.0 mi ENE 9.2 mph - N/A   Partly Cloudy
7:00 PM -25.6 °F -43.8 °F -31.0 °F 76% 30.04 in 15.0 mi East 6.9 mph - N/A   Partly Cloudy
8:00 PM -25.6 °F -45.4 °F -32.8 °F 69% 30.02 in 15.0 mi East 8.1 mph - N/A   Partly Cloudy
9:00 PM -25.6 °F -41.9 °F -32.8 °F 69% 30.01 in 15.0 mi East 5.8 mph - N/A   Scattered Clouds
10:00 PM -25.6 °F -41.9 °F -31.0 °F 76% 29.99 in 15.0 mi East 5.8 mph - N/A   Scattered Clouds
11:00 PM -25 °F - -31 °F 59% 29.97 in 15 mi East 10.4 mph - -   Partly Cloudy
11:00 PM -25.6 °F -46.8 °F -31.0 °F 76% 29.97 in 15.0 mi East 9.2 mph - N/A   Scattered Clouds